sat.trackr.live / text

‹ back to catalog

STARLINK-32241

NORAD 60437 · 2024-144N

PAYLOAD ACTIVE UNKNOWN

§ Identity

Operator
Country
US
Launch date
2024-08-12
Launch site
AFETR
Launch vehicle
Mass (kg)
RCS (m²)

Purposes: comms

External: N2YO · Heavens-Above · Gunter

§ Orbital elements

Epoch: 2026-05-25T04:53:12.407712Z

Period
93.85 min
Inclination
53.1604°
Eccentricity
0.0001099
Mean motion
15.34391453 rev/d
Perigee alt
462.0 km
Apogee alt
463.5 km
Semi-major
6,840.9 km
B*
4.8021e-5
RAAN
221.0356°
Arg perigee
71.1091°
Mean anomaly
289.0030°
Rev number
10,103

§ Raw data

STARLINK-322411 60437U 24144N   26145.20361583  .00001246  00000+0  48021-4 0  99922 60437  53.1604 221.0356 0001099  71.1091 289.0030 15.34391453101033

JSON: /api/v1/satellites/60437 · /tle

For live sub-satellite position, see the globe view (requires WebGL).

§ Visibility from observer

Set your observer location to see the next 7 days of passes ≥ 10°. The values pass through the URL so the page stays shareable.

No JS? Fill the form by hand. The geolocation button needs JavaScript.